Siga o Apolo11 no Facebook   Siga o Apolo11 no Twiiter
Ciência, Espaço e Tecnologia




Elementos Keplerianos formato Two Line

Para que um programa de rastreio possa saber a localização exata de qualquer satélite no espaço e assim poder rastreá-lo corretamente, é necessário que ele seja carregado com algumas informações.

Estas informações são chamadas de Elementos Orbitais ou Elementos Keplerianos e consistem em 2 linhas com dezenas de números. Esses números nada mais são que os parâmetros orbitais do satélite, tais como altitude, atitude, excentricidade da órbita, número de órbitas por dia, etc.

Com base nestas informações o programa é capaz de determinar com bastante exatidão a posição de qualquer satélite no espaço e nos informar em qual horário este estará dentro do alcance de nossa estação. Para que isso seja feito com precisão é necessário que os dados estejam sempre bem atualizadas.

Devido aos parâmetros orbitais serem descritos em 2 linhas, estes formato é também conhecido internacionalmente por 2line (leia-se Two Line”).

Para atualizar seu programa de rastreio basta copiar os dados disponibilizados e fornece-los ao programa. Nossos elementos orbitais são atualizados diariamente.

NOAATodos os satélites ambientais da série NOAA
30 DiasSatélites lançados nos últimos 30 dias
ISSSatélites e foguetes relacionados à Estação Espacial Internacional
HAMSatélites construídos por radiomadores
CUBESatélites tipo cubo, com 10 centímetros de lado
METEOSatélites voltados à previsão do tempo
EDUSatélites construídos e operados por universidades
VIS100 satélites mais brilhantes que podem ser vistos a olho nú



Satélites Educacionais
SAUDISAT 1C             
1 27607U 02058C   20195.73075632 -.00000064  00000-0  11386-4 0  9991
2 27607  64.5561 294.0276 0044659 169.3040 190.9024 14.75645679944738
SAUDISAT 2              
1 28371U 04025F   20195.85528561  .00000034  00000-0  18817-4 0  9995
2 28371  98.2818 144.4847 0026691 110.4336 249.9733 14.54385259851011
SAUDISAT 3              
1 31118U 07012B   20195.78698093  .00000013  00000-0  10306-4 0  9999
2 31118  97.8712 153.0517 0013759 280.3847  79.5808 14.69166790709832
PISAT                   
1 41784U 16059B   20195.82041966  .00000057  00000-0  19981-4 0  9992
2 41784  98.0166 251.5964 0030896 228.6475 131.2069 14.63524627202767
FLYING LAPTOP           
1 42831U 17042G   20195.83513733  .00000047  00000-0  10070-4 0  9995
2 42831  97.5182  76.5125 0013605 191.1568 168.9352 14.91137293163222


IMAGENS DE SATÉLITES !    Clique e conheça nosso Vídeo Workshop de sensoriamento remoto e imagens meteorológicas.
Apolo11.com - Todos os direitos reservados - 2001 - 2020
Política de Privacidade

"O diabo é um otimista se pensa que pode fazer as pessoas piores do que são. " - Karl Kraus